Clinton, MO

7:20 PM CST on November 23, 2017 (GMT -0600)
Clinton Memorial

Weather History for KGLY - June, 2014

Change the Weather History Date:

Monday, June 9, 2014

  Actual Average (KSZL) Record (KSZL)
Temperature  
Mean Temperature 66 °F -  
Max Temperature 71 °F 79 °F 91 °F (2006)
Min Temperature 60 °F 61 °F 50 °F (2007)
Growing Degree Days 16 (Base 50)    
Moisture  
Dew Point 64 °F    
Average Humidity 95    
Maximum Humidity 100    
Minimum Humidity 73    
Precipitation  
Precipitation 0.97 in - - ()
Sea Level Pressure  
Sea Level Pressure 29.81 in    
Wind  
Wind Speed 6 mph (East)    
Max Wind Speed 16 mph    
Max Gust Speed 22 mph    
Visibility 7 miles    
Events Rain    
Averages and records for this station are not official NWS values.
T = Trace of Precipitation, MM = Missing Value Source: NWS Daily Summary

Daily Weather History Graph

Daily Weather History Graph

Search for Another Location

Airport or City:

Trip Planner

Search our weather history database for the weather conditions in past years. The results will help you decide how hot, cold, wet, or windy it might be!

Date:

Astronomy

Jun. 09, 2014 Rise Set
Actual Time 5:50 AM CDT 8:37 PM CDT
Civil Twilight 5:19 AM CDT 9:08 PM CDT
Nautical Twilight 4:39 AM CDT 9:48 PM CDT
Astronomical Twilight 3:55 AM CDT 10:33 PM CDT
Moon 5:01 PM CDT (6/9) 3:15 AM CDT (6/9)
Length of Visible Light 15h 49m
Length of Day
14h 46m
Waxing Gibbous, 85% of the Moon is Illuminated
Jun 9
Waxing Gibbous
Jun 12
Full
Jun 19
Last Quarter
Jun 27
New
Jul 5
First Quarter

Hourly Weather History & Observations

Time (CDT) Temp. Dew Point Humidity Pressure Visibility Wind Dir Wind Speed Gust Speed Precip Events Conditions
12:15 AM 62.6 °F 62.6 °F 100% 29.96 in 9.0 mi East 5.8 mph - N/A   Clear
12:35 AM 62.6 °F 62.6 °F 100% 29.95 in 10.0 mi East 5.8 mph - N/A   Clear
12:55 AM 62.6 °F 62.6 °F 100% 29.94 in 10.0 mi East 4.6 mph - N/A   Clear
1:15 AM 62.6 °F 60.8 °F 94% 29.94 in 10.0 mi East 3.5 mph - N/A   Clear
1:35 AM 62.6 °F 60.8 °F 94% 29.94 in 10.0 mi Calm Calm - N/A   Clear
1:55 AM 62.6 °F 60.8 °F 94% 29.92 in 10.0 mi East 4.6 mph - N/A   Clear
2:15 AM 62.6 °F 60.8 °F 94% 29.92 in 10.0 mi Calm Calm - N/A   Clear
2:35 AM 62.6 °F 60.8 °F 94% 29.92 in 10.0 mi Calm Calm - N/A   Clear
2:55 AM 62.6 °F 60.8 °F 94% 29.91 in 10.0 mi Calm Calm - N/A   Clear
3:15 AM 62.6 °F 60.8 °F 94% 29.90 in 10.0 mi Calm Calm - N/A   Clear
3:35 AM 60.8 °F 60.8 °F 100% 29.90 in 9.0 mi Calm Calm - N/A   Clear
3:55 AM 60.8 °F 60.8 °F 100% 29.90 in 9.0 mi Calm Calm - N/A   Clear
4:15 AM 60.8 °F 60.8 °F 100% 29.89 in 6.0 mi Calm Calm - N/A   Clear
4:35 AM 60.8 °F 60.8 °F 100% 29.89 in 6.0 mi ENE 4.6 mph - N/A   Clear
4:55 AM 60.8 °F 60.8 °F 100% 29.88 in 6.0 mi ENE 4.6 mph - N/A   Clear
5:15 AM 60.8 °F 60.8 °F 100% 29.87 in 7.0 mi ENE 4.6 mph - N/A   Clear
5:35 AM 60.8 °F 60.8 °F 100% 29.86 in 5.0 mi East 6.9 mph - N/A   Clear
5:55 AM 60.8 °F 60.8 °F 100% 29.85 in 3.0 mi East 5.8 mph - N/A   Clear
6:15 AM 60.8 °F 60.8 °F 100% 29.86 in 3.0 mi East 5.8 mph - N/A   Clear
6:35 AM 60.8 °F 60.8 °F 100% 29.88 in 4.0 mi East 4.6 mph - N/A   Clear
6:55 AM 62.6 °F 62.6 °F 100% 29.88 in 4.0 mi Calm Calm - N/A   Clear
7:15 AM 62.6 °F 62.6 °F 100% 29.87 in 5.0 mi ENE 3.5 mph - N/A   Clear
7:35 AM 64.4 °F 64.4 °F 100% 29.86 in 6.0 mi East 6.9 mph - N/A   Clear
7:55 AM 66.2 °F 64.4 °F 94% 29.85 in 9.0 mi East 6.9 mph - N/A   Clear
8:15 AM 66.2 °F 64.4 °F 94% 29.85 in 8.0 mi ESE 8.1 mph - N/A   Clear
8:35 AM 68.0 °F 64.4 °F 88% 29.86 in 6.0 mi ESE 11.5 mph - N/A   Partly Cloudy
8:55 AM 69.8 °F 64.4 °F 83% 29.85 in 4.0 mi ESE 11.5 mph 17.3 mph N/A   Partly Cloudy
9:15 AM 69.8 °F 62.6 °F 78% 29.85 in 7.0 mi SE 12.7 mph 17.3 mph N/A   Clear
9:35 AM 71.6 °F 64.4 °F 78% 29.85 in 9.0 mi SE 10.4 mph 16.1 mph N/A   Partly Cloudy
9:55 AM 71.6 °F 62.6 °F 73% 29.84 in 8.0 mi ESE 10.4 mph 17.3 mph N/A   Scattered Clouds
10:15 AM 71.6 °F 62.6 °F 73% 29.83 in 10.0 mi ESE 9.2 mph - N/A   Mostly Cloudy
10:35 AM 71.6 °F 62.6 °F 73% 29.84 in 4.0 mi ESE 11.5 mph 17.3 mph N/A   Haze
10:55 AM 69.8 °F 62.6 °F 78% 29.83 in 10.0 mi ESE 8.1 mph - N/A   Overcast
11:55 AM 69.8 °F 62.6 °F 78% 29.83 in 10.0 mi ESE 9.2 mph 19.6 mph N/A   Overcast
12:15 PM 68.0 °F 64.4 °F 88% 29.83 in 3.0 mi ESE 10.4 mph 21.9 mph N/A   Overcast
12:35 PM 66.2 °F 64.4 °F 94% 29.82 in 7.0 mi East 8.1 mph - N/A   Overcast
12:55 PM 66.2 °F 64.4 °F 94% 29.82 in 8.0 mi East 8.1 mph - N/A   Overcast
1:15 PM 66.2 °F 64.4 °F 94% 29.80 in 3.0 mi East 10.4 mph - 0.01 in   Drizzle
1:35 PM 66.2 °F 64.4 °F 94% 29.79 in 10.0 mi East 8.1 mph - 0.01 in   Overcast
2:55 PM 68.0 °F 64.4 °F 88% 29.76 in 10.0 mi East 10.4 mph 18.4 mph N/A   Overcast
3:15 PM 69.8 °F 64.4 °F 83% 29.75 in 10.0 mi East 9.2 mph - N/A   Overcast
3:35 PM 69.8 °F 64.4 °F 83% 29.75 in 9.0 mi East 8.1 mph - N/A   Overcast
3:55 PM 68.0 °F 64.4 °F 88% 29.74 in 3.0 mi East 12.7 mph - 0.02 in Rain Rain
4:15 PM 66.2 °F 64.4 °F 94% 29.74 in 4.0 mi East 6.9 mph - 0.02 in Rain Light Rain
4:35 PM 66.2 °F 66.2 °F 100% 29.73 in 5.0 mi East 8.1 mph - 0.03 in Rain Light Rain
4:55 PM 66.2 °F 66.2 °F 100% 29.73 in 5.0 mi East 9.2 mph - 0.04 in   Overcast
5:15 PM 66.2 °F 66.2 °F 100% 29.73 in 5.0 mi East 8.1 mph - 0.01 in Rain Light Rain
5:35 PM 66.2 °F 66.2 °F 100% 29.73 in 4.0 mi East 6.9 mph - 0.03 in Rain Light Rain
5:55 PM 66.2 °F 66.2 °F 100% 29.72 in 2.0 mi East 6.9 mph - 0.14 in Rain Rain
6:15 PM 66.2 °F 66.2 °F 100% 29.72 in 3.0 mi East 9.2 mph - 0.03 in Rain Light Rain
6:35 PM 66.2 °F 66.2 °F 100% 29.72 in 3.0 mi ENE 10.4 mph - 0.05 in Rain Light Rain
6:55 PM 66.2 °F 66.2 °F 100% 29.72 in 5.0 mi East 6.9 mph - 0.06 in Rain Light Rain
7:15 PM 66.2 °F 66.2 °F 100% 29.72 in 2.5 mi ENE 9.2 mph - N/A Rain Rain
7:35 PM 66.2 °F 66.2 °F 100% 29.71 in 2.5 mi ENE 8.1 mph - 0.07 in Rain Light Rain
7:55 PM 66.2 °F 66.2 °F 100% 29.71 in 7.0 mi East 9.2 mph - 0.08 in   Light Drizzle
8:15 PM 66.2 °F 66.2 °F 100% 29.71 in 5.0 mi East 9.2 mph - N/A   Light Drizzle
8:35 PM 66.2 °F 66.2 °F 100% 29.71 in 8.0 mi East 10.4 mph - N/A   Overcast
8:55 PM 66.2 °F 66.2 °F 100% 29.71 in 2.5 mi East 8.1 mph - 0.06 in Rain Heavy Rain
9:15 PM 66.2 °F 66.2 °F 100% 29.71 in 2.5 mi ENE 11.5 mph - 0.26 in Rain Heavy Rain
9:35 PM 66.2 °F 66.2 °F 100% 29.71 in 10.0 mi East 9.2 mph - 0.30 in   Light Drizzle
9:55 PM 64.4 °F 64.4 °F 100% 29.70 in 2.0 mi East 16.1 mph 21.9 mph 0.51 in Rain Rain
10:15 PM 64.4 °F 64.4 °F 100% 29.72 in 10.0 mi East 11.5 mph - N/A Rain Light Rain
10:35 PM 64.4 °F 64.4 °F 100% 29.71 in 9.0 mi ENE 8.1 mph - 0.02 in Rain Light Rain
10:55 PM 64.4 °F 64.4 °F 100% 29.72 in 10.0 mi East 8.1 mph - 0.03 in Rain Light Rain
11:15 PM 64.4 °F 64.4 °F 100% 29.71 in 10.0 mi NE 10.4 mph - 0.01 in Rain Rain
11:35 PM 64.4 °F 64.4 °F 100% 29.71 in 10.0 mi ENE 8.1 mph - 0.02 in   Light Drizzle
11:55 PM 64.4 °F 62.6 °F 94% 29.71 in 10.0 mi ENE 4.6 mph - 0.02 in   Clear